星链-30383 (STARLINK-30383 )

导读 | 豆包AI

STARLINK-30383是美国SpaceX星链互联网卫星星座的一员,于2023年9月4日8点发射。星链计划旨在构建全球卫星互联网,该卫星入轨后,和其他星链卫星协同,为全球各地用户提供低延迟、高速率的互联网接入服务,尤其覆盖偏远无地面网络区域,进一步推进星链星座组网进程。

基本信息
目录编号:
57773
目录名称:
STARLINK-30383
国际标识:
2023-134C
轨道中心:
EARTH
卫星名称:
星链-30383
卫星全名:
星链-30383 (STARLINK-30383 )
卫星状态:
在轨 (已飞行969 天)
发射日期:
2023-09-04 UTC
国别 :
美国 (US)
星等 :
--
轨道信息
数据来源 国际轨道数据 AOE轨道数据
星历时间 2026-04-30T02:37:28+0800
22小时前
查看轨道信息
2026-04-26T02:00:00+0800
4天前
查看轨道信息
半长轴 6861.202km 6861.192km
偏心率 0.0001644 0.0001921
轨道倾角 43.001° 43.002°
近地点辐角 270.531° 267.439°
升交点赤经 269.062° 291.805°
平近点角 89.535° 246.518°
近地点 481.937km 481.736km
远地点 484.193km 484.374km
周期 94.267分钟 94.267分钟
每日圈数 15.275748 15.275783
详细信息
固有亮度:
5
最大亮度:
0.3
卫星平台:
Starlink v2.0 mini
覆盖范围:
全球
运营商:
太空探索技术公司
运营商所在国:
美国
制造商(研发单位):
太空探索技术公司
制造商所在国:
美国
使用方式:
暂无
卫星简介
星链(Starlink)计划是由太空探索技术公司(SpaceX)提出的一个巨型低轨卫星互联网星座项目,计划在2019年至2024年间在太空搭建由约1.2万颗卫星组成的“星链”网络,其中1584颗将部署在地球上空550千米处的近地轨道,并从2020年开始工作。该卫星仍在工作。
2D轨道图
3D轨道图
轨道高度分析图
轨道倾角分析图
轨道综合分析图
查看轨道综合分析图